This demonstration page uses our WeatherBlox Daily Observations layout. Learn more.

Left ArrowRight Arrow

41.12389, -100.76542

Hourly Observations for May 22, 2017

Temp ( °F °C ) Dew Point ( °F °C ) Humidity (%) Winds ( mph kmh ) Pressure ( in mb ) Visibility ( mi km ) Precip ( " mm )
12:53 am 00:53 Clear 51 10.6 47 8.3 86 86 W 5 7 30.08 1019 10 16 0.00 0.00
1:53 am 01:53 Clear 49 9.4 45 7.2 86 86 NW 6 9 30.09 1019 10 16 0.00 0.00
2:53 am 02:53 Clear 45 7.2 43 6.1 93 93 WNW 7 11 30.09 1019 10 16 0.00 0.00
3:53 am 03:53 Clear 42 5.6 41 5 96 96 W 5 7 30.07 1018 10 16 0.00 0.00
4:53 am 04:53 Clear 40 4.4 39 3.9 97 97 WNW 6 9 30.06 1018 10 16 0.00 0.00
5:53 am 05:53 Clear 43 6.1 42 5.6 97 97 WSW 5 7 30.05 1018 10 16 0.00 0.00
6:53 am 06:53 Sunny 41 5 40 4.4 96 96 W 6 9 30.06 1018 10 16 0.00 0.00
7:53 am 07:53 Sunny 49 9.4 46 7.8 90 90 W 8 13 30.05 1018 10 16 0.00 0.00
8:53 am 08:53 Sunny 54 12.2 46 7.8 75 75 WNW 9 15 30.04 1017 10 16 0.00 0.00
9:53 am 09:53 Sunny 60 15.6 48 8.9 65 65 W 12 19 30.01 1016 10 16 0.00 0.00
10:53 am 10:53 Sunny 65 18.3 49 9.4 56 56 W 13 20 30.00 1016 10 16 0.00 0.00
11:53 am 11:53 Sunny 68 20 44 6.7 42 42 WSW 16 26 29.96 1015 10 16 0.00 0.00
12:53 pm 12:53 Cloudy with Light Rain 57 13.9 48 8.9 72 72 WSW 12 19 29.97 1015 6 10 0.08 2.03
1:53 pm 13:53 Cloudy 68 20 51 10.6 55 55 WNW 12 19 29.93 1014 10 16 0.00 0.03
2:53 pm 14:53 Mostly Sunny 67 19.4 45 7.2 45 45 NNW 12 19 29.94 1014 10 16 0.00 0.00
3:53 pm 15:53 Mostly Sunny 69 20.6 43 6.1 39 39 N 10 17 29.93 1014 10 16 0.00 0.00
4:53 pm 16:53 Partly Cloudy 65 18.3 42 5.6 43 43 NW 10 17 29.94 1014 10 16 0.00 0.00
5:53 pm 17:53 Cloudy 61 16.1 43 6.1 52 52 WNW 14 22 29.96 1015 10 16 0.00 0.00
6:53 pm 18:53 Cloudy 59 15 42 5.6 54 54 NNW 16 26 29.97 1015 10 16 0.00 0.00
7:53 pm 19:53 Cloudy 56 13.3 42 5.6 60 60 N 20 31 29.99 1016 10 16 0.00 0.03
8:53 pm 20:53 Cloudy 54 12.2 44 6.7 69 69 NNW 12 19 30.03 1017 10 16 0.00 0.00
9:53 pm 21:53 Cloudy with Rain 50 10 47 8.3 89 89 NNW 12 19 30.06 1018 6 10 0.07 1.78
10:53 pm 22:53 Partly Cloudy 46 7.8 45 7.2 96 96 WNW 8 13 30.06 1018 10 16 0.05 1.27
11:53 pm 23:53 Clear 43 6.1 42 5.6 97 97 NW 7 11 30.06 1018 10 16 0.00 0.00

Powered by AerisWeather